Location: Newark
(45.5000°N, 11.4167°E)
Time: 12:52:31
(UTC+00:00)

Transit 2A Rocket - Pass Details

Date: 28 August 2019
Orbit: 592 x 911 km, 66.7° (Epoch: 19 September)

Event Time Altitude Azimuth Distance (km) Brightness Sun altitude
Rises 15:23:41 0° 160° (SSE) 3,447 8.3 26.4°
Reaches altitude 10° 15:27:20 10° 138° (SE) 2,462 7.4 25.7°
Maximum altitude 15:30:21 15° 106° (ESE) 2,094 6.9 25.2°
Drops below altitude 10° 15:33:16 10° 73° (ENE) 2,363 7.1 24.7°
Sets 15:36:38 0° 51° (NE) 3,226 7.7 24.1°
